Time,TemperatureF,DewpointF,PressureIn,WindDirection,WindDirectionDegrees,WindSpeedMPH,WindSpeedGustMPH,Humidity,HourlyPrecipIn,Conditions,Clouds,dailyrainin,SoftwareType,DateUTC
2013-09-03 00:01:00,68.9,63.5,29.80,West,275,0.0,0.0,83,0.00,,---,0.00,VWS V14.01,2013-09-03 04:01:00,
2013-09-03 00:02:00,68.9,63.5,29.80,West,275,0.0,0.0,83,0.00,,---,0.00,VWS V14.01,2013-09-03 04:02:00,
2013-09-03 00:07:00,68.9,63.5,29.80,West,275,0.0,0.0,83,0.00,,---,0.00,VWS V14.01,2013-09-03 04:07:00,
2013-09-03 00:12:00,69.1,63.7,29.80,West,275,0.0,0.0,83,0.00,,---,0.00,VWS V14.01,2013-09-03 04:12:00,
2013-09-03 00:18:00,69.1,63.7,29.80,West,275,0.0,0.0,83,0.00,,---,0.00,VWS V14.01,2013-09-03 04:18:00,
2013-09-03 00:23:00,69.1,63.7,29.80,West,275,0.0,0.0,83,0.00,,---,0.00,VWS V14.01,2013-09-03 04:23:00,
2013-09-03 00:28:00,69.1,63.7,29.80,West,276,0.0,0.0,83,0.00,,---,0.00,VWS V14.01,2013-09-03 04:28:00,
2013-09-03 00:33:00,69.1,63.7,29.80,West,275,0.0,0.0,83,0.00,,---,0.00,VWS V14.01,2013-09-03 04:33:00,
2013-09-03 00:38:00,69.1,63.7,29.80,West,275,0.0,0.0,83,0.00,,---,0.00,VWS V14.01,2013-09-03 04:38:00,
2013-09-03 00:43:00,69.1,63.7,29.80,West,275,0.0,0.0,83,0.00,,---,0.00,VWS V14.01,2013-09-03 04:43:00,
2013-09-03 00:48:00,69.1,63.7,29.80,West,276,0.0,0.0,83,0.00,,---,0.00,VWS V14.01,2013-09-03 04:48:00,
2013-09-03 00:53:00,69.3,64.2,29.80,West,275,0.0,0.0,84,0.00,,---,0.00,VWS V14.01,2013-09-03 04:53:00,
2013-09-03 00:58:00,69.1,64.1,29.80,West,275,0.0,0.0,84,0.00,,---,0.00,VWS V14.01,2013-09-03 04:58:00,
2013-09-03 01:03:00,69.3,64.2,29.80,West,276,0.0,0.0,84,0.00,,---,0.00,VWS V14.01,2013-09-03 05:03:00,
2013-09-03 01:08:00,69.3,64.2,29.80,West,276,0.0,0.0,84,0.00,,---,0.00,VWS V14.01,2013-09-03 05:08:00,
2013-09-03 01:13:00,69.3,64.2,29.80,West,275,0.0,0.0,84,0.00,,---,0.00,VWS V14.01,2013-09-03 05:13:00,
2013-09-03 01:18:00,69.1,64.1,29.80,West,275,0.0,3.1,84,0.04,,---,0.04,VWS V14.01,2013-09-03 05:18:00,
2013-09-03 01:23:00,69.1,64.1,29.77,West,276,0.0,3.1,84,0.04,,---,0.04,VWS V14.01,2013-09-03 05:23:00,
2013-09-03 01:28:00,69.1,64.1,29.77,West,275,0.0,3.6,84,0.04,,---,0.04,VWS V14.01,2013-09-03 05:28:00,
2013-09-03 01:33:00,68.9,63.9,29.77,West,276,0.0,2.7,84,0.04,,---,0.04,VWS V14.01,2013-09-03 05:33:00,
2013-09-03 01:38:00,68.9,63.9,29.77,West,275,3.1,5.4,84,0.04,,---,0.04,VWS V14.01,2013-09-03 05:38:00,
2013-09-03 01:43:00,68.9,63.9,29.77,West,276,0.0,3.1,84,0.04,,---,0.04,VWS V14.01,2013-09-03 05:43:00,
2013-09-03 01:48:00,68.9,63.9,29.77,West,275,3.1,3.6,84,0.04,,---,0.04,VWS V14.01,2013-09-03 05:48:00,
2013-09-03 01:53:00,68.9,63.9,29.77,West,275,0.0,3.1,84,0.04,,---,0.04,VWS V14.01,2013-09-03 05:53:00,
2013-09-03 01:58:00,68.9,63.9,29.77,West,275,0.0,3.1,84,0.04,,---,0.04,VWS V14.01,2013-09-03 05:58:00,
2013-09-03 02:03:00,68.9,63.9,29.77,West,275,0.0,0.0,84,0.04,,---,0.04,VWS V14.01,2013-09-03 06:03:00,
2013-09-03 02:08:00,68.9,64.2,29.77,West,276,3.1,3.1,85,0.04,,---,0.04,VWS V14.01,2013-09-03 06:08:00,
2013-09-03 02:13:00,68.9,64.2,29.77,West,275,0.0,4.5,85,0.04,,---,0.04,VWS V14.01,2013-09-03 06:13:00,
2013-09-03 02:18:00,68.9,63.9,29.77,West,276,0.0,4.0,84,0.00,,---,0.04,VWS V14.01,2013-09-03 06:18:00,
2013-09-03 02:23:00,68.9,63.9,29.74,West,276,0.0,0.0,84,0.00,,---,0.04,VWS V14.01,2013-09-03 06:23:00,
2013-09-03 02:28:00,68.9,64.2,29.74,West,275,0.0,0.0,85,0.00,,---,0.04,VWS V14.01,2013-09-03 06:28:00,
2013-09-03 02:33:00,68.7,64.0,29.74,West,275,0.0,0.0,85,0.00,,---,0.04,VWS V14.01,2013-09-03 06:33:00,
2013-09-03 02:38:00,68.7,64.0,29.74,West,275,0.0,0.0,85,0.00,,---,0.04,VWS V14.01,2013-09-03 06:38:00,
2013-09-03 02:43:00,68.7,64.0,29.74,West,275,0.0,0.0,85,0.00,,---,0.04,VWS V14.01,2013-09-03 06:43:00,
2013-09-03 02:48:00,68.5,63.9,29.74,West,275,0.0,0.0,85,0.00,,---,0.04,VWS V14.01,2013-09-03 06:48:00,
2013-09-03 02:53:00,68.5,63.5,29.74,West,275,0.0,0.0,84,0.00,,---,0.04,VWS V14.01,2013-09-03 06:53:00,
2013-09-03 02:58:00,68.4,63.3,29.74,West,275,0.0,0.0,84,0.00,,---,0.04,VWS V14.01,2013-09-03 06:58:00,
2013-09-03 03:03:00,68.4,63.3,29.74,West,275,0.0,0.0,84,0.00,,---,0.04,VWS V14.01,2013-09-03 07:03:00,
2013-09-03 03:08:00,68.2,63.2,29.74,West,275,0.0,0.0,84,0.00,,---,0.04,VWS V14.01,2013-09-03 07:08:00,
2013-09-03 03:13:00,68.2,63.2,29.74,West,275,0.0,0.0,84,0.00,,---,0.04,VWS V14.01,2013-09-03 07:13:00,
2013-09-03 03:18:00,68.0,63.0,29.74,West,275,0.0,0.0,84,0.00,,---,0.04,VWS V14.01,2013-09-03 07:18:00,
2013-09-03 03:23:00,68.0,63.0,29.74,West,275,0.0,0.0,84,0.00,,---,0.04,VWS V14.01,2013-09-03 07:23:00,
2013-09-03 03:28:00,68.0,63.0,29.74,West,275,0.0,0.0,84,0.00,,---,0.04,VWS V14.01,2013-09-03 07:28:00,
2013-09-03 03:33:00,68.0,63.0,29.74,West,275,0.0,0.0,84,0.00,,---,0.04,VWS V14.01,2013-09-03 07:33:00,
2013-09-03 03:38:00,68.0,63.0,29.74,West,275,0.0,0.0,84,0.00,,---,0.04,VWS V14.01,2013-09-03 07:38:00,
2013-09-03 03:43:00,68.0,63.0,29.74,West,275,0.0,0.0,84,0.00,,---,0.04,VWS V14.01,2013-09-03 07:43:00,
2013-09-03 03:48:00,67.8,62.8,29.74,West,275,0.0,0.0,84,0.00,,---,0.04,VWS V14.01,2013-09-03 07:48:00,
2013-09-03 03:53:00,67.8,62.8,29.74,West,275,0.0,0.0,84,0.00,,---,0.04,VWS V14.01,2013-09-03 07:53:00,
2013-09-03 03:58:00,67.8,62.8,29.74,West,276,0.0,0.0,84,0.00,,---,0.04,VWS V14.01,2013-09-03 07:58:00,
2013-09-03 04:03:00,67.6,62.6,29.74,West,275,0.0,0.0,84,0.00,,---,0.04,VWS V14.01,2013-09-03 08:03:00,
2013-09-03 04:08:00,67.6,62.6,29.74,West,275,0.0,0.0,84,0.00,,---,0.04,VWS V14.01,2013-09-03 08:08:00,
2013-09-03 04:13:00,67.6,62.6,29.74,West,275,0.0,0.0,84,0.00,,---,0.04,VWS V14.01,2013-09-03 08:13:00,
2013-09-03 04:18:00,67.6,62.6,29.74,West,275,0.0,0.0,84,0.00,,---,0.04,VWS V14.01,2013-09-03 08:18:00,
2013-09-03 04:23:00,67.6,62.6,29.74,West,275,0.0,0.0,84,0.00,,---,0.04,VWS V14.01,2013-09-03 08:23:00,
2013-09-03 04:28:00,67.6,62.6,29.74,West,275,0.0,0.0,84,0.00,,---,0.04,VWS V14.01,2013-09-03 08:28:00,
2013-09-03 04:33:00,67.6,62.6,29.74,West,275,0.0,2.7,84,0.00,,---,0.04,VWS V14.01,2013-09-03 08:33:00,
2013-09-03 04:39:00,67.5,62.5,29.74,West,275,0.0,0.0,84,0.00,,---,0.04,VWS V14.01,2013-09-03 08:39:00,
2013-09-03 04:44:00,67.5,62.5,29.74,West,275,0.0,0.0,84,0.00,,---,0.04,VWS V14.01,2013-09-03 08:44:00,
2013-09-03 04:49:00,67.5,62.5,29.74,West,275,0.0,3.1,84,0.00,,---,0.04,VWS V14.01,2013-09-03 08:49:00,
2013-09-03 04:54:00,67.5,62.5,29.74,West,275,0.0,3.1,84,0.00,,---,0.04,VWS V14.01,2013-09-03 08:54:00,
2013-09-03 04:59:00,67.3,62.3,29.74,West,275,0.0,3.1,84,0.00,,---,0.04,VWS V14.01,2013-09-03 08:59:00,
2013-09-03 05:04:00,67.3,62.3,29.74,West,275,0.0,4.0,84,0.00,,---,0.04,VWS V14.01,2013-09-03 09:04:00,
2013-09-03 05:09:00,67.1,62.1,29.77,West,275,0.0,0.0,84,0.00,,---,0.04,VWS V14.01,2013-09-03 09:09:00,
2013-09-03 05:14:00,67.1,62.1,29.77,West,276,0.0,3.1,84,0.00,,---,0.04,VWS V14.01,2013-09-03 09:14:00,
2013-09-03 05:19:00,66.9,61.9,29.77,West,276,0.0,0.0,84,0.00,,---,0.04,VWS V14.01,2013-09-03 09:19:00,
2013-09-03 05:24:00,67.1,62.1,29.77,West,276,0.0,0.0,84,0.00,,---,0.04,VWS V14.01,2013-09-03 09:24:00,
2013-09-03 05:29:00,67.1,62.1,29.77,West,276,0.0,0.0,84,0.00,,---,0.04,VWS V14.01,2013-09-03 09:29:00,
2013-09-03 05:34:00,67.1,62.1,29.77,West,276,0.0,0.0,84,0.00,,---,0.04,VWS V14.01,2013-09-03 09:34:00,
2013-09-03 05:39:00,67.3,62.3,29.77,West,276,0.0,0.0,84,0.00,,---,0.04,VWS V14.01,2013-09-03 09:39:00,
2013-09-03 05:44:00,67.1,62.1,29.77,West,275,0.0,0.0,84,0.00,,---,0.04,VWS V14.01,2013-09-03 09:44:00,
2013-09-03 05:49:00,67.1,62.1,29.77,West,275,0.0,0.0,84,0.00,,---,0.04,VWS V14.01,2013-09-03 09:49:00,
2013-09-03 05:54:00,67.3,62.3,29.77,West,275,0.0,0.0,84,0.00,,---,0.04,VWS V14.01,2013-09-03 09:54:00,
2013-09-03 05:59:00,67.1,62.1,29.77,West,276,0.0,0.0,84,0.00,,---,0.04,VWS V14.01,2013-09-03 09:59:00,
2013-09-03 06:04:00,67.3,62.3,29.77,West,275,0.0,0.0,84,0.00,,---,0.04,VWS V14.01,2013-09-03 10:04:00,
2013-09-03 06:09:00,67.1,62.1,29.77,West,275,0.0,0.0,84,0.00,,---,0.04,VWS V14.01,2013-09-03 10:09:00,
2013-09-03 06:14:00,67.1,62.1,29.77,West,276,0.0,0.0,84,0.00,,---,0.04,VWS V14.01,2013-09-03 10:14:00,
2013-09-03 06:19:00,67.3,62.3,29.77,West,276,0.0,0.0,84,0.00,,---,0.04,VWS V14.01,2013-09-03 10:19:00,
2013-09-03 06:24:00,67.3,62.3,29.77,West,276,0.0,0.0,84,0.00,,---,0.04,VWS V14.01,2013-09-03 10:24:00,
2013-09-03 06:29:00,67.3,62.3,29.77,West,275,0.0,0.0,84,0.00,,---,0.04,VWS V14.01,2013-09-03 10:29:00,
2013-09-03 06:34:00,67.3,62.3,29.77,West,276,0.0,0.0,84,0.00,,---,0.04,VWS V14.01,2013-09-03 10:34:00,
2013-09-03 06:39:00,67.3,62.3,29.77,West,276,0.0,0.0,84,0.00,,---,0.04,VWS V14.01,2013-09-03 10:39:00,
2013-09-03 06:44:00,67.3,62.3,29.77,West,275,0.0,0.0,84,0.00,,---,0.04,VWS V14.01,2013-09-03 10:44:00,
2013-09-03 06:49:00,67.5,62.5,29.77,West,275,0.0,0.0,84,0.00,,---,0.04,VWS V14.01,2013-09-03 10:49:00,
2013-09-03 06:54:00,67.5,62.5,29.77,West,275,0.0,0.0,84,0.00,,---,0.04,VWS V14.01,2013-09-03 10:54:00,
2013-09-03 06:59:00,67.3,62.3,29.77,West,275,0.0,0.0,84,0.00,,---,0.04,VWS V14.01,2013-09-03 10:59:00,
2013-09-03 07:04:00,67.3,62.3,29.77,West,276,0.0,0.0,84,0.00,,---,0.04,VWS V14.01,2013-09-03 11:04:00,
2013-09-03 07:09:00,67.3,62.3,29.77,West,275,0.0,3.1,84,0.00,,---,0.04,VWS V14.01,2013-09-03 11:09:00,
2013-09-03 07:14:00,67.3,62.3,29.77,West,276,3.1,3.1,84,0.00,,---,0.04,VWS V14.01,2013-09-03 11:14:00,
2013-09-03 07:19:00,67.5,62.5,29.77,West,275,0.0,3.6,84,0.00,,---,0.04,VWS V14.01,2013-09-03 11:19:00,
2013-09-03 07:24:00,67.3,62.3,29.80,West,276,0.0,4.0,84,0.00,,---,0.04,VWS V14.01,2013-09-03 11:24:00,
2013-09-03 07:29:00,67.3,62.3,29.80,West,275,0.0,4.0,84,0.00,,---,0.04,VWS V14.01,2013-09-03 11:29:00,
2013-09-03 07:34:00,66.9,61.9,29.80,West,276,0.0,3.1,84,0.00,,---,0.04,VWS V14.01,2013-09-03 11:34:00,
2013-09-03 07:39:00,66.7,61.8,29.80,West,276,0.0,0.0,84,0.00,,---,0.04,VWS V14.01,2013-09-03 11:39:00,
2013-09-03 07:44:00,66.7,61.8,29.80,West,275,0.0,0.0,84,0.00,,---,0.04,VWS V14.01,2013-09-03 11:44:00,
2013-09-03 07:49:00,66.7,61.8,29.80,West,275,0.0,3.6,84,0.00,,---,0.04,VWS V14.01,2013-09-03 11:49:00,
2013-09-03 07:54:00,66.7,61.8,29.80,West,275,0.0,0.0,84,0.00,,---,0.04,VWS V14.01,2013-09-03 11:54:00,
2013-09-03 07:59:00,66.9,61.9,29.80,West,275,0.0,2.7,84,0.00,,---,0.04,VWS V14.01,2013-09-03 11:59:00,
2013-09-03 08:04:00,67.1,62.5,29.80,West,276,0.0,0.0,85,0.00,,---,0.04,VWS V14.01,2013-09-03 12:04:00,
2013-09-03 08:09:00,67.1,62.5,29.80,West,276,0.0,0.0,85,0.00,,---,0.04,VWS V14.01,2013-09-03 12:09:00,
2013-09-03 08:14:00,67.1,62.1,29.80,West,276,0.0,0.0,84,0.00,,---,0.04,VWS V14.01,2013-09-03 12:14:00,
2013-09-03 08:19:00,67.3,62.6,29.80,West,276,0.0,0.0,85,0.00,,---,0.04,VWS V14.01,2013-09-03 12:19:00,
2013-09-03 08:24:00,67.3,62.6,29.80,West,275,0.0,0.0,85,0.00,,---,0.04,VWS V14.01,2013-09-03 12:24:00,
2013-09-03 08:29:00,67.5,62.8,29.80,West,276,0.0,2.7,85,0.00,,---,0.04,VWS V14.01,2013-09-03 12:29:00,
2013-09-03 08:34:00,67.6,63.0,29.80,West,276,0.0,0.0,85,0.00,,---,0.04,VWS V14.01,2013-09-03 12:34:00,
2013-09-03 08:39:00,67.8,63.2,29.80,West,276,0.0,0.0,85,0.00,,---,0.04,VWS V14.01,2013-09-03 12:39:00,
2013-09-03 08:44:00,67.8,62.8,29.80,West,276,0.0,0.0,84,0.00,,---,0.04,VWS V14.01,2013-09-03 12:44:00,
2013-09-03 08:49:00,68.0,63.3,29.80,West,276,0.0,0.0,85,0.00,,---,0.04,VWS V14.01,2013-09-03 12:49:00,
2013-09-03 08:54:00,68.2,63.5,29.80,West,276,0.0,0.0,85,0.00,,---,0.04,VWS V14.01,2013-09-03 12:54:00,
2013-09-03 08:59:00,68.4,63.7,29.80,West,276,0.0,0.0,85,0.00,,---,0.04,VWS V14.01,2013-09-03 12:59:00,
2013-09-03 09:04:00,68.5,63.9,29.80,West,275,0.0,0.0,85,0.00,,---,0.04,VWS V14.01,2013-09-03 13:04:00,
2013-09-03 09:09:00,68.7,64.0,29.80,West,276,0.0,0.0,85,0.00,,---,0.04,VWS V14.01,2013-09-03 13:09:00,
2013-09-03 09:14:00,68.9,64.2,29.80,West,276,0.0,0.0,85,0.00,,---,0.04,VWS V14.01,2013-09-03 13:14:00,
2013-09-03 09:19:00,68.9,63.9,29.80,West,276,0.0,0.0,84,0.00,,---,0.04,VWS V14.01,2013-09-03 13:19:00,
2013-09-03 09:24:00,69.1,64.1,29.80,West,275,0.0,0.0,84,0.00,,---,0.04,VWS V14.01,2013-09-03 13:24:00,
2013-09-03 09:29:00,69.4,64.4,29.80,West,276,0.0,0.0,84,0.00,,---,0.04,VWS V14.01,2013-09-03 13:29:00,
2013-09-03 09:34:00,69.4,64.4,29.80,West,276,0.0,0.0,84,0.00,,---,0.04,VWS V14.01,2013-09-03 13:34:00,
2013-09-03 09:39:00,69.4,64.4,29.83,West,275,0.0,0.0,84,0.00,,---,0.04,VWS V14.01,2013-09-03 13:39:00,
2013-09-03 09:44:00,69.6,64.6,29.83,West,275,0.0,2.7,84,0.00,,---,0.04,VWS V14.01,2013-09-03 13:44:00,
2013-09-03 09:49:00,69.8,64.8,29.83,West,275,0.0,0.0,84,0.00,,---,0.04,VWS V14.01,2013-09-03 13:49:00,
2013-09-03 09:54:00,70.0,64.6,29.80,West,276,0.0,3.1,83,0.00,,---,0.04,VWS V14.01,2013-09-03 13:54:00,
2013-09-03 09:59:00,70.0,64.6,29.80,West,276,0.0,3.1,83,0.00,,---,0.04,VWS V14.01,2013-09-03 13:59:00,
2013-09-03 10:04:00,70.5,65.1,29.80,West,275,0.0,4.0,83,0.00,,---,0.04,VWS V14.01,2013-09-03 14:04:00,
2013-09-03 10:09:00,70.9,65.5,29.80,West,276,0.0,3.1,83,0.00,,---,0.04,VWS V14.01,2013-09-03 14:09:00,
2013-09-03 10:14:00,71.1,65.6,29.80,West,276,0.0,4.9,83,0.00,,---,0.04,VWS V14.01,2013-09-03 14:14:00,
2013-09-03 10:19:00,71.2,65.8,29.80,West,276,0.0,3.6,83,0.00,,---,0.04,VWS V14.01,2013-09-03 14:19:00,
2013-09-03 10:24:00,71.6,66.2,29.80,West,276,0.0,4.0,83,0.00,,---,0.04,VWS V14.01,2013-09-03 14:24:00,
2013-09-03 10:29:00,71.8,66.0,29.80,West,275,0.0,3.6,82,0.00,,---,0.04,VWS V14.01,2013-09-03 14:29:00,
2013-09-03 10:34:00,72.0,66.2,29.80,West,276,2.7,4.9,82,0.00,,---,0.04,VWS V14.01,2013-09-03 14:34:00,
2013-09-03 10:39:00,72.0,65.8,29.80,West,275,0.0,3.1,81,0.00,,---,0.04,VWS V14.01,2013-09-03 14:39:00,
2013-09-03 10:44:00,72.1,66.0,29.80,West,276,0.0,0.0,81,0.00,,---,0.04,VWS V14.01,2013-09-03 14:44:00,
2013-09-03 10:49:00,72.5,66.3,29.80,West,276,0.0,0.0,81,0.00,,---,0.04,VWS V14.01,2013-09-03 14:49:00,
2013-09-03 10:54:00,72.9,66.3,29.80,NE,53,3.6,4.5,80,0.00,,---,0.04,VWS V14.01,2013-09-03 14:54:00,
2013-09-03 10:59:00,73.2,66.3,29.80,NW,320,0.0,0.0,79,0.00,,---,0.04,VWS V14.01,2013-09-03 14:59:00,
2013-09-03 11:04:00,73.4,65.4,29.80,WNW,284,0.0,0.0,76,0.00,,---,0.04,VWS V14.01,2013-09-03 15:04:00,
2013-09-03 11:09:00,73.6,64.0,29.80,West,275,4.9,4.9,72,0.00,,---,0.04,VWS V14.01,2013-09-03 15:09:00,
2013-09-03 11:14:00,74.3,62.2,29.80,NNW,331,3.6,3.6,66,0.00,,---,0.04,VWS V14.01,2013-09-03 15:14:00,
2013-09-03 11:19:00,74.5,59.7,29.80,North,10,0.0,3.1,60,0.00,,---,0.04,VWS V14.01,2013-09-03 15:19:00,
2013-09-03 11:24:00,74.5,59.7,29.80,North,351,3.1,3.1,60,0.00,,---,0.04,VWS V14.01,2013-09-03 15:24:00,
2013-09-03 11:29:00,74.5,58.3,29.80,WSW,258,0.0,0.0,57,0.00,,---,0.04,VWS V14.01,2013-09-03 15:29:00,
2013-09-03 11:34:00,74.5,57.8,29.80,NW,310,0.0,0.0,56,0.00,,---,0.04,VWS V14.01,2013-09-03 15:34:00,
2013-09-03 11:39:00,73.9,56.8,29.80,NW,313,0.0,0.0,55,0.00,,---,0.04,VWS V14.01,2013-09-03 15:39:00,
2013-09-03 11:44:00,73.6,55.9,29.80,NW,312,0.0,0.0,54,0.00,,---,0.04,VWS V14.01,2013-09-03 15:44:00,
2013-09-03 11:49:00,73.6,55.4,29.80,WSW,254,4.5,4.5,53,0.00,,---,0.04,VWS V14.01,2013-09-03 15:49:00,
2013-09-03 11:54:00,73.6,55.4,29.80,West,278,0.0,4.0,53,0.00,,---,0.04,VWS V14.01,2013-09-03 15:54:00,
2013-09-03 11:59:00,73.0,54.4,29.80,WNW,284,0.0,0.0,52,0.00,,---,0.04,VWS V14.01,2013-09-03 15:59:00,
2013-09-03 12:04:00,72.9,54.2,29.80,West,267,0.0,6.7,52,0.00,,---,0.04,VWS V14.01,2013-09-03 16:04:00,
2013-09-03 12:09:00,72.7,54.1,29.80,West,272,3.6,4.0,52,0.00,,---,0.04,VWS V14.01,2013-09-03 16:09:00,
2013-09-03 12:14:00,72.5,54.4,29.80,West,273,3.1,3.1,53,0.00,,---,0.04,VWS V14.01,2013-09-03 16:14:00,
2013-09-03 12:19:00,72.5,54.9,29.80,NW,307,0.0,4.5,54,0.00,,---,0.04,VWS V14.01,2013-09-03 16:19:00,
2013-09-03 12:24:00,72.1,54.1,29.80,SW,228,0.0,3.1,53,0.00,,---,0.04,VWS V14.01,2013-09-03 16:24:00,
2013-09-03 12:30:00,72.1,54.1,29.80,West,268,0.0,4.9,53,0.00,,---,0.04,VWS V14.01,2013-09-03 16:30:00,
2013-09-03 12:35:00,72.1,54.1,29.80,West,277,0.0,4.0,53,0.00,,---,0.04,VWS V14.01,2013-09-03 16:35:00,
2013-09-03 12:40:00,72.0,53.9,29.80,WSW,257,3.1,3.1,53,0.00,,---,0.04,VWS V14.01,2013-09-03 16:40:00,
2013-09-03 12:45:00,72.0,53.9,29.80,WNW,282,0.0,7.8,53,0.00,,---,0.04,VWS V14.01,2013-09-03 16:45:00,
2013-09-03 12:50:00,72.0,53.9,29.80,West,281,3.6,5.4,53,0.00,,---,0.04,VWS V14.01,2013-09-03 16:50:00,
2013-09-03 12:55:00,72.0,53.9,29.80,West,262,0.0,6.3,53,0.00,,---,0.04,VWS V14.01,2013-09-03 16:55:00,
2013-09-03 13:00:00,72.0,53.9,29.80,West,269,6.3,6.7,53,0.00,,---,0.04,VWS V14.01,2013-09-03 17:00:00,
2013-09-03 13:05:00,72.1,54.1,29.80,West,260,0.0,0.0,53,0.00,,---,0.04,VWS V14.01,2013-09-03 17:05:00,
2013-09-03 13:10:00,72.1,54.1,29.80,West,266,5.8,7.4,53,0.00,,---,0.04,VWS V14.01,2013-09-03 17:10:00,
2013-09-03 13:15:00,72.0,53.4,29.80,West,281,0.0,7.4,52,0.00,,---,0.04,VWS V14.01,2013-09-03 17:15:00,
2013-09-03 13:20:00,71.8,53.2,29.80,WSW,253,3.1,6.9,52,0.00,,---,0.04,VWS V14.01,2013-09-03 17:20:00,
2013-09-03 13:25:00,71.6,53.1,29.80,West,265,0.0,2.7,52,0.00,,---,0.04,VWS V14.01,2013-09-03 17:25:00,
2013-09-03 13:30:00,71.6,53.1,29.80,NNE,14,0.0,3.1,52,0.00,,---,0.04,VWS V14.01,2013-09-03 17:30:00,
2013-09-03 13:35:00,71.4,53.4,29.80,NNE,18,2.7,3.6,53,0.00,,---,0.04,VWS V14.01,2013-09-03 17:35:00,
2013-09-03 13:40:00,70.9,52.4,29.80,North,10,0.0,0.0,52,0.00,,---,0.04,VWS V14.01,2013-09-03 17:40:00,
2013-09-03 13:45:00,70.3,51.9,29.80,North,10,3.1,4.0,52,0.00,,---,0.04,VWS V14.01,2013-09-03 17:45:00,
2013-09-03 13:50:00,70.2,52.2,29.80,NW,313,5.4,5.4,53,0.00,,---,0.04,VWS V14.01,2013-09-03 17:50:00,
2013-09-03 13:55:00,70.0,52.6,29.80,North,5,3.1,4.5,54,0.00,,---,0.04,VWS V14.01,2013-09-03 17:55:00,
2013-09-03 14:00:00,69.8,52.4,29.80,NNE,32,0.0,3.6,54,0.00,,---,0.04,VWS V14.01,2013-09-03 18:00:00,
2013-09-03 14:05:00,69.6,52.3,29.80,North,356,0.0,0.0,54,0.00,,---,0.04,VWS V14.01,2013-09-03 18:05:00,
2013-09-03 14:10:00,69.8,52.9,29.80,North,4,2.7,4.5,55,0.00,,---,0.04,VWS V14.01,2013-09-03 18:10:00,
2013-09-03 14:15:00,70.0,53.6,29.80,NNE,15,4.0,4.9,56,0.00,,---,0.04,VWS V14.01,2013-09-03 18:15:00,
2013-09-03 14:20:00,70.0,53.6,29.80,NE,34,3.1,4.9,56,0.00,,---,0.04,VWS V14.01,2013-09-03 18:20:00,
2013-09-03 14:25:00,70.0,53.1,29.80,North,356,0.0,4.5,55,0.00,,---,0.04,VWS V14.01,2013-09-03 18:25:00,
2013-09-03 14:30:00,70.3,53.9,29.80,North,356,0.0,0.0,56,0.00,,---,0.04,VWS V14.01,2013-09-03 18:30:00,
2013-09-03 14:35:00,70.5,54.1,29.80,NW,315,0.0,4.9,56,0.00,,---,0.04,VWS V14.01,2013-09-03 18:35:00,
2013-09-03 14:40:00,70.5,53.6,29.80,NNE,26,0.0,5.8,55,0.00,,---,0.04,VWS V14.01,2013-09-03 18:40:00,
2013-09-03 14:46:00,70.7,53.3,29.80,NNE,21,0.0,3.6,54,0.00,,---,0.04,VWS V14.01,2013-09-03 18:46:00,
2013-09-03 14:51:00,71.4,53.9,29.80,North,4,3.1,5.4,54,0.00,,---,0.04,VWS V14.01,2013-09-03 18:51:00,
2013-09-03 14:56:00,72.3,53.2,29.80,West,267,4.5,5.4,51,0.00,,---,0.04,VWS V14.01,2013-09-03 18:56:00,
2013-09-03 15:01:00,74.5,55.2,29.80,NNE,13,0.0,4.5,51,0.00,,---,0.04,VWS V14.01,2013-09-03 19:01:00,
2013-09-03 15:06:00,75.4,53.8,29.80,NNE,13,0.0,0.0,47,0.00,,---,0.04,VWS V14.01,2013-09-03 19:06:00,
2013-09-03 15:11:00,75.7,51.0,29.80,NNE,13,0.0,0.0,42,0.00,,---,0.04,VWS V14.01,2013-09-03 19:11:00,
2013-09-03 15:16:00,75.7,50.4,29.80,NNE,13,0.0,0.0,41,0.00,,---,0.04,VWS V14.01,2013-09-03 19:16:00,
2013-09-03 15:21:00,76.5,50.4,29.80,North,356,0.0,0.0,40,0.00,,---,0.04,VWS V14.01,2013-09-03 19:21:00,
2013-09-03 15:26:00,77.5,50.0,29.80,WSW,258,0.0,0.0,38,0.00,,---,0.04,VWS V14.01,2013-09-03 19:26:00,
2013-09-03 15:31:00,77.0,48.0,29.80,West,273,6.9,6.9,36,0.00,,---,0.04,VWS V14.01,2013-09-03 19:31:00,
2013-09-03 15:36:00,77.0,46.5,29.80,ENE,61,0.0,0.0,34,0.00,,---,0.04,VWS V14.01,2013-09-03 19:36:00,
2013-09-03 15:41:00,77.2,47.4,29.80,NW,304,0.0,0.0,35,0.00,,---,0.04,VWS V14.01,2013-09-03 19:41:00,
2013-09-03 15:46:00,77.7,46.3,29.80,WSW,258,0.0,6.3,33,0.00,,---,0.04,VWS V14.01,2013-09-03 19:46:00,
2013-09-03 15:51:00,76.5,43.6,29.80,NNE,19,0.0,6.3,31,0.00,,---,0.04,VWS V14.01,2013-09-03 19:51:00,
2013-09-03 15:56:00,76.6,44.6,29.80,NNE,19,4.5,4.5,32,0.00,,---,0.04,VWS V14.01,2013-09-03 19:56:00,
2013-09-03 16:01:00,77.5,45.4,29.80,NNE,27,0.0,0.0,32,0.00,,---,0.04,VWS V14.01,2013-09-03 20:01:00,
2013-09-03 16:06:00,77.9,44.0,29.80,NNE,28,5.4,6.9,30,0.00,,---,0.04,VWS V14.01,2013-09-03 20:06:00,
2013-09-03 16:11:00,78.8,44.8,29.80,North,356,4.0,7.4,30,0.00,,---,0.04,VWS V14.01,2013-09-03 20:11:00,
2013-09-03 16:16:00,79.2,43.3,29.80,West,266,4.0,11.0,28,0.00,,---,0.04,VWS V14.01,2013-09-03 20:16:00,
2013-09-03 16:21:00,79.7,41.8,29.80,WSW,252,0.0,8.7,26,0.00,,---,0.04,VWS V14.01,2013-09-03 20:21:00,
2013-09-03 16:26:00,80.4,40.4,29.80,WSW,253,0.0,4.9,24,0.00,,---,0.04,VWS V14.01,2013-09-03 20:26:00,
2013-09-03 16:31:00,79.9,39.9,29.80,NE,53,4.5,5.4,24,0.00,,---,0.04,VWS V14.01,2013-09-03 20:31:00,
2013-09-03 16:36:00,78.6,40.9,29.80,NE,53,0.0,3.1,26,0.00,,---,0.04,VWS V14.01,2013-09-03 20:36:00,
2013-09-03 16:42:00,78.4,42.7,29.80,NE,53,0.0,3.1,28,0.00,,---,0.04,VWS V14.01,2013-09-03 20:42:00,
2013-09-03 16:47:00,78.4,43.6,29.80,NNW,340,3.6,4.5,29,0.00,,---,0.04,VWS V14.01,2013-09-03 20:47:00,
2013-09-03 16:52:00,78.1,38.4,29.80,North,356,2.7,5.4,24,0.00,,---,0.04,VWS V14.01,2013-09-03 20:52:00,
2013-09-03 16:57:00,77.4,39.8,29.80,NNW,330,0.0,4.5,26,0.00,,---,0.04,VWS V14.01,2013-09-03 20:57:00,
2013-09-03 17:02:00,77.0,39.5,29.80,North,351,3.1,6.3,26,0.00,,---,0.04,VWS V14.01,2013-09-03 21:02:00,
2013-09-03 17:07:00,76.3,38.9,29.80,NNW,346,0.0,4.0,26,0.00,,---,0.04,VWS V14.01,2013-09-03 21:07:00,
2013-09-03 17:12:00,75.4,39.1,29.80,NNW,340,0.0,0.0,27,0.00,,---,0.04,VWS V14.01,2013-09-03 21:12:00,
2013-09-03 17:17:00,75.0,41.5,29.80,NNW,340,0.0,0.0,30,0.00,,---,0.04,VWS V14.01,2013-09-03 21:17:00,
2013-09-03 17:22:00,76.5,41.0,29.80,WSW,250,6.3,6.3,28,0.00,,---,0.04,VWS V14.01,2013-09-03 21:22:00,
2013-09-03 17:27:00,77.7,37.0,29.80,NNE,14,4.9,4.9,23,0.00,,---,0.04,VWS V14.01,2013-09-03 21:27:00,
2013-09-03 17:32:00,77.9,34.9,29.80,West,259,8.3,11.6,21,0.00,,---,0.04,VWS V14.01,2013-09-03 21:32:00,
2013-09-03 17:37:00,77.7,35.9,29.80,WNW,285,5.4,6.9,22,0.00,,---,0.04,VWS V14.01,2013-09-03 21:37:00,
2013-09-03 17:42:00,77.9,34.9,29.80,West,268,3.6,6.3,21,0.00,,---,0.04,VWS V14.01,2013-09-03 21:42:00,
2013-09-03 17:47:00,77.9,33.6,29.80,WNW,293,4.9,13.9,20,0.00,,---,0.04,VWS V14.01,2013-09-03 21:47:00,
2013-09-03 17:52:00,77.7,33.5,29.80,West,272,7.4,13.0,20,0.00,,---,0.04,VWS V14.01,2013-09-03 21:52:00,
2013-09-03 17:57:00,77.4,30.6,29.80,WNW,283,4.9,11.0,18,0.00,,---,0.04,VWS V14.01,2013-09-03 21:57:00,
2013-09-03 18:02:00,77.4,33.2,29.80,West,274,4.5,6.3,20,0.00,,---,0.04,VWS V14.01,2013-09-03 22:02:00,
2013-09-03 18:07:00,77.7,33.5,29.80,WNW,282,0.0,5.8,20,0.00,,---,0.04,VWS V14.01,2013-09-03 22:07:00,
2013-09-03 18:12:00,77.7,30.9,29.80,WSW,243,0.0,5.4,18,0.00,,---,0.04,VWS V14.01,2013-09-03 22:12:00,
2013-09-03 18:17:00,77.5,33.3,29.80,SE,129,0.0,5.8,20,0.00,,---,0.04,VWS V14.01,2013-09-03 22:17:00,
2013-09-03 18:22:00,77.2,30.4,29.80,East,101,3.1,4.9,18,0.00,,---,0.04,VWS V14.01,2013-09-03 22:22:00,
2013-09-03 18:27:00,76.6,30.0,29.80,WNW,289,0.0,6.9,18,0.00,,---,0.04,VWS V14.01,2013-09-03 22:27:00,
2013-09-03 18:32:00,76.1,32.2,29.80,WNW,287,4.0,5.4,20,0.00,,---,0.04,VWS V14.01,2013-09-03 22:32:00,
2013-09-03 18:37:00,75.6,31.7,29.80,WSW,253,3.1,6.7,20,0.00,,---,0.04,VWS V14.01,2013-09-03 22:37:00,
2013-09-03 18:42:00,75.2,31.4,29.80,West,268,0.0,6.7,20,0.00,,---,0.04,VWS V14.01,2013-09-03 22:42:00,
2013-09-03 18:48:00,74.8,31.1,29.80,NW,310,3.6,8.7,20,0.00,,---,0.04,VWS V14.01,2013-09-03 22:48:00,
2013-09-03 18:53:00,74.3,31.9,29.80,NW,306,4.5,7.8,21,0.00,,---,0.04,VWS V14.01,2013-09-03 22:53:00,
2013-09-03 18:58:00,73.8,31.4,29.80,West,265,3.1,9.6,21,0.00,,---,0.04,VWS V14.01,2013-09-03 22:58:00,
2013-09-03 19:03:00,73.2,31.0,29.80,NE,34,6.7,10.1,21,0.00,,---,0.04,VWS V14.01,2013-09-03 23:03:00,
2013-09-03 19:08:00,72.7,30.5,29.83,West,276,3.6,9.6,21,0.00,,---,0.04,VWS V14.01,2013-09-03 23:08:00,
2013-09-03 19:13:00,72.3,31.4,29.83,West,270,6.3,6.9,22,0.00,,---,0.04,VWS V14.01,2013-09-03 23:13:00,
2013-09-03 19:18:00,71.8,30.9,29.83,West,266,2.7,8.7,22,0.00,,---,0.04,VWS V14.01,2013-09-03 23:18:00,
2013-09-03 19:23:00,71.4,30.6,29.83,NW,304,0.0,5.4,22,0.00,,---,0.04,VWS V14.01,2013-09-03 23:23:00,
2013-09-03 19:28:00,71.1,30.3,29.83,NNE,16,0.0,6.9,22,0.00,,---,0.04,VWS V14.01,2013-09-03 23:28:00,
2013-09-03 19:33:00,70.7,31.1,29.83,WNW,283,2.7,7.8,23,0.00,,---,0.04,VWS V14.01,2013-09-03 23:33:00,
2013-09-03 19:38:00,70.5,31.0,29.83,West,271,0.0,8.7,23,0.00,,---,0.04,VWS V14.01,2013-09-03 23:38:00,
2013-09-03 19:43:00,70.2,31.7,29.83,NW,306,0.0,4.9,24,0.00,,---,0.04,VWS V14.01,2013-09-03 23:43:00,
2013-09-03 19:48:00,70.0,31.6,29.83,NE,37,4.5,8.3,24,0.00,,---,0.04,VWS V14.01,2013-09-03 23:48:00,
2013-09-03 19:53:00,69.8,32.4,29.83,West,272,0.0,6.7,25,0.00,,---,0.04,VWS V14.01,2013-09-03 23:53:00,
2013-09-03 19:58:00,69.6,32.3,29.83,West,267,0.0,8.3,25,0.00,,---,0.04,VWS V14.01,2013-09-03 23:58:00,
2013-09-03 20:03:00,69.6,32.3,29.83,West,281,0.0,3.1,25,0.00,,---,0.04,VWS V14.01,2013-09-04 00:03:00,
2013-09-03 20:08:00,69.4,32.1,29.83,West,267,5.8,8.7,25,0.00,,---,0.04,VWS V14.01,2013-09-04 00:08:00,
2013-09-03 20:13:00,69.3,32.0,29.83,West,275,0.0,10.1,25,0.00,,---,0.04,VWS V14.01,2013-09-04 00:13:00,
2013-09-03 20:18:00,69.3,32.9,29.83,WNW,301,0.0,6.3,26,0.00,,---,0.04,VWS V14.01,2013-09-04 00:18:00,
2013-09-03 20:23:00,69.1,32.8,29.85,WNW,283,0.0,8.3,26,0.00,,---,0.04,VWS V14.01,2013-09-04 00:23:00,
2013-09-03 20:28:00,68.9,33.6,29.85,WNW,287,0.0,0.0,27,0.00,,---,0.04,VWS V14.01,2013-09-04 00:28:00,
2013-09-03 20:33:00,68.7,34.3,29.85,WNW,288,0.0,0.0,28,0.00,,---,0.04,VWS V14.01,2013-09-04 00:33:00,
2013-09-03 20:38:00,68.5,34.2,29.85,NNW,342,0.0,5.8,28,0.00,,---,0.04,VWS V14.01,2013-09-04 00:38:00,
2013-09-03 20:43:00,68.5,35.9,29.85,West,267,0.0,3.6,30,0.00,,---,0.04,VWS V14.01,2013-09-04 00:43:00,
2013-09-03 20:48:00,68.5,35.9,29.85,West,280,0.0,0.0,30,0.00,,---,0.04,VWS V14.01,2013-09-04 00:48:00,
2013-09-03 20:53:00,68.4,36.6,29.85,West,280,0.0,0.0,31,0.00,,---,0.04,VWS V14.01,2013-09-04 00:53:00,
2013-09-03 20:58:00,68.0,37.1,29.85,West,280,0.0,0.0,32,0.00,,---,0.04,VWS V14.01,2013-09-04 00:58:00,
2013-09-03 21:03:00,67.6,36.8,29.85,West,280,0.0,0.0,32,0.00,,---,0.04,VWS V14.01,2013-09-04 01:03:00,
2013-09-03 21:08:00,67.5,36.6,29.85,West,280,0.0,0.0,32,0.00,,---,0.04,VWS V14.01,2013-09-04 01:08:00,
2013-09-03 21:13:00,67.5,37.4,29.85,West,281,0.0,0.0,33,0.00,,---,0.04,VWS V14.01,2013-09-04 01:13:00,
2013-09-03 21:18:00,67.3,37.2,29.85,WNW,296,0.0,0.0,33,0.00,,---,0.04,VWS V14.01,2013-09-04 01:18:00,
2013-09-03 21:23:00,67.3,37.2,29.85,WNW,296,0.0,0.0,33,0.00,,---,0.04,VWS V14.01,2013-09-04 01:23:00,
2013-09-03 21:28:00,66.9,36.9,29.85,WNW,296,0.0,0.0,33,0.00,,---,0.04,VWS V14.01,2013-09-04 01:28:00,
2013-09-03 21:33:00,66.9,37.7,29.85,WNW,296,0.0,0.0,34,0.00,,---,0.04,VWS V14.01,2013-09-04 01:33:00,
2013-09-03 21:38:00,66.7,39.0,29.88,WNW,296,0.0,0.0,36,0.00,,---,0.04,VWS V14.01,2013-09-04 01:38:00,
2013-09-03 21:43:00,66.4,40.0,29.88,WNW,296,0.0,0.0,38,0.00,,---,0.04,VWS V14.01,2013-09-04 01:43:00,
2013-09-03 21:48:00,66.2,40.5,29.88,WNW,297,0.0,0.0,39,0.00,,---,0.04,VWS V14.01,2013-09-04 01:48:00,
2013-09-03 21:53:00,66.0,41.0,29.88,WNW,296,0.0,0.0,40,0.00,,---,0.04,VWS V14.01,2013-09-04 01:53:00,
2013-09-03 21:58:00,65.7,42.0,29.88,WNW,297,0.0,0.0,42,0.00,,---,0.04,VWS V14.01,2013-09-04 01:58:00,
2013-09-03 22:03:00,65.3,42.2,29.88,WNW,297,0.0,0.0,43,0.00,,---,0.04,VWS V14.01,2013-09-04 02:03:00,
2013-09-03 22:08:00,64.9,41.9,29.88,WNW,296,0.0,0.0,43,0.00,,---,0.04,VWS V14.01,2013-09-04 02:08:00,
2013-09-03 22:13:00,64.8,42.4,29.88,WNW,296,0.0,0.0,44,0.00,,---,0.04,VWS V14.01,2013-09-04 02:13:00,
2013-09-03 22:18:00,64.4,42.6,29.88,WNW,296,0.0,0.0,45,0.00,,---,0.04,VWS V14.01,2013-09-04 02:18:00,
2013-09-03 22:23:00,64.0,42.9,29.88,WNW,296,0.0,0.0,46,0.00,,---,0.04,VWS V14.01,2013-09-04 02:23:00,
2013-09-03 22:28:00,63.9,43.8,29.88,WNW,296,0.0,0.0,48,0.00,,---,0.04,VWS V14.01,2013-09-04 02:28:00,
2013-09-03 22:33:00,63.7,44.7,29.88,WNW,296,0.0,0.0,50,0.00,,---,0.04,VWS V14.01,2013-09-04 02:33:00,
2013-09-03 22:38:00,63.3,45.4,29.88,WNW,296,0.0,0.0,52,0.00,,---,0.04,VWS V14.01,2013-09-04 02:38:00,
2013-09-03 22:43:00,63.1,45.8,29.88,WNW,296,0.0,0.0,53,0.00,,---,0.04,VWS V14.01,2013-09-04 02:43:00,
2013-09-03 22:48:00,63.0,46.1,29.88,WNW,296,3.1,3.6,54,0.00,,---,0.04,VWS V14.01,2013-09-04 02:48:00,
2013-09-03 22:53:00,63.0,46.6,29.88,WNW,297,0.0,2.7,55,0.00,,---,0.04,VWS V14.01,2013-09-04 02:53:00,
2013-09-03 22:58:00,63.0,46.6,29.88,WNW,296,0.0,0.0,55,0.00,,---,0.04,VWS V14.01,2013-09-04 02:58:00,
2013-09-03 23:03:00,63.0,46.6,29.88,WNW,297,0.0,0.0,55,0.00,,---,0.04,VWS V14.01,2013-09-04 03:03:00,
2013-09-03 23:08:00,63.0,46.6,29.88,WNW,297,0.0,0.0,55,0.00,,---,0.04,VWS V14.01,2013-09-04 03:08:00,
2013-09-03 23:13:00,63.0,46.6,29.88,WNW,296,3.1,3.1,55,0.00,,---,0.04,VWS V14.01,2013-09-04 03:13:00,
2013-09-03 23:18:00,62.8,45.9,29.88,WNW,297,0.0,3.1,54,0.00,,---,0.04,VWS V14.01,2013-09-04 03:18:00,
2013-09-03 23:23:00,62.8,46.4,29.88,WNW,296,0.0,0.0,55,0.00,,---,0.04,VWS V14.01,2013-09-04 03:23:00,
2013-09-03 23:28:00,62.8,45.9,29.88,WNW,296,0.0,0.0,54,0.00,,---,0.04,VWS V14.01,2013-09-04 03:28:00,
2013-09-03 23:33:00,62.6,45.7,29.88,WNW,297,0.0,0.0,54,0.00,,---,0.04,VWS V14.01,2013-09-04 03:33:00,
2013-09-03 23:38:00,62.4,46.1,29.88,WNW,297,0.0,0.0,55,0.00,,---,0.04,VWS V14.01,2013-09-04 03:38:00,
2013-09-03 23:43:00,62.2,46.4,29.88,WNW,296,0.0,0.0,56,0.00,,---,0.04,VWS V14.01,2013-09-04 03:43:00,
2013-09-03 23:48:00,62.1,47.1,29.88,WNW,297,0.0,0.0,58,0.00,,---,0.04,VWS V14.01,2013-09-04 03:48:00,
2013-09-03 23:53:00,61.9,47.4,29.88,WNW,296,0.0,0.0,59,0.00,,---,0.04,VWS V14.01,2013-09-04 03:53:00,
2013-09-03 23:58:00,61.7,47.7,29.88,WNW,296,0.0,0.0,60,0.00,,---,0.04,VWS V14.01,2013-09-04 03:58:00,